Location: Bottenau
(48.5138°N, 8.0462°E)
Time: 21:05:40
(UTC+00:00)

Cosmos 2227 Rocket - Pass Details

Date: 18 April 2021
Orbit: 840 x 843 km, 71.0° (Epoch: 18 May)

Event Time Altitude Azimuth Distance (km) Brightness Sun altitude
Exits shadow 21:38:59 23° 228° (SW) 1,707 3.6 -25.7°
Maximum altitude 21:42:28 61° 302° (WNW) 953 2.6 -26.0°
Drops below altitude 10° 21:48:05 10° 23° (NNE) 2,471 5.1 -26.5°
Sets 21:50:35 0° 27° (NNE) 3,410 5.8 -26.6°
